Date String (YYYY-MM-DD hh:mm:ss) UTC,Instrument flags,absolute air pressure of the measurement (hPa),sample flow rate (lpm),inlet stack bypass flow (lpm),air temperature of the measurement (°C),ambient temperature measured by the external sensor (°C),aerosol sample conditioner tube jacket temperature (°C),OPC LED temperature (°C),internal box temperature (°C),relative humidity of the measurement (%),span deviation,mass concentration of particles derived from Lorenz-Mie calculation of OPC scattering (μg/m³),mass concentration of particles derived from Lorenz-Mie calculation of OPC scattering (μg/m³),mass concentration of particles derived from Lorenz-Mie calculation of OPC scattering (μg/m³)
DateTimeUTC,F1_M11,P_M11,Q1_M11,Q2_M11,T1_M11,T2_M11,T3_M11,T4_M11,T5_M11,U1_M11,ZSPAN_M11,X0_M11,X2_M11,X1_M11
2024-01-05 04:00:00,SystemResetWarning,0825.0,4.99,000.00,018.8,017.9,000.0,027.3,020.0,18.1,0002.4,0021.18,0013.90,0013.03
2024-01-05 04:01:00,SystemResetWarning,0825.0,5.00,000.00,018.8,017.9,000.0,027.3,020.0,18.2,0002.5,0021.72,0013.99,0013.08
2024-01-05 04:02:00,SystemResetWarning,0825.0,5.00,000.00,018.8,018.0,000.0,027.3,020.0,18.2,0002.6,0021.97,0014.03,0013.12
2024-01-05 04:03:00,SystemResetWarning,0825.0,4.99,000.00,018.8,018.0,000.0,027.3,020.0,18.2,0002.6,0021.90,0014.08,0013.14
2024-01-05 04:04:00,SystemResetWarning,0825.0,5.00,000.00,018.8,018.0,000.0,027.2,020.0,18.3,0002.6,0022.44,0014.10,0013.13
2024-01-05 04:05:00,SystemResetWarning,0825.0,5.01,000.00,018.8,018.0,000.0,027.2,020.0,18.3,0002.5,0022.80,0014.13,0013.11
2024-01-05 04:06:00,SystemResetWarning,0825.1,5.01,000.00,018.8,018.0,000.0,027.3,020.0,18.3,0002.6,0023.52,0014.07,0013.07
2024-01-05 04:07:00,SystemResetWarning,0825.1,4.99,000.00,018.8,018.0,000.0,027.3,020.0,18.3,0002.7,0023.78,0014.04,0013.07
2024-01-05 04:08:00,SystemResetWarning,0825.1,4.99,000.00,018.8,017.9,000.0,027.2,020.0,18.3,0002.7,0023.92,0014.06,0013.09
2024-01-05 04:09:00,SystemResetWarning,0825.1,5.00,000.00,018.8,017.9,000.0,027.2,020.0,18.4,0002.7,0023.09,0014.05,0013.08
2024-01-05 04:10:00,SystemResetWarning,0825.1,5.01,000.00,018.8,017.9,000.0,027.2,020.0,18.4,0002.6,0022.78,0014.03,0013.06
2024-01-05 04:11:00,SystemResetWarning,0825.1,4.99,000.00,018.8,017.9,000.0,027.2,020.0,18.4,0002.5,0022.19,0014.02,0013.06
2024-01-05 04:12:00,SystemResetWarning,0825.1,4.99,000.00,018.8,017.9,000.0,027.2,020.0,18.4,0002.2,0021.65,0013.96,0013.05
2024-01-05 04:13:00,SystemResetWarning,0825.1,4.99,000.00,018.8,017.9,000.0,027.2,020.0,18.4,0002.2,0021.23,0013.88,0013.03
2024-01-05 04:14:00,SystemResetWarning,0825.1,5.01,000.00,018.8,017.9,000.0,027.2,020.0,18.4,0002.1,0020.93,0013.83,0013.02
2024-01-05 04:15:00,SystemResetWarning,0825.1,5.01,000.00,018.8,017.8,000.0,027.3,020.0,18.4,0001.9,0020.25,0013.79,0013.04
2024-01-05 04:16:00,SystemResetWarning,0825.1,5.00,000.00,018.8,017.8,000.0,027.3,020.0,18.5,0001.9,0020.16,0013.77,0013.06
2024-01-05 04:17:00,SystemResetWarning,0825.1,5.00,000.00,018.8,017.8,000.0,027.3,020.0,18.5,0001.7,0019.86,0013.79,0013.09
2024-01-05 04:18:00,SystemResetWarning,0825.1,5.00,000.00,018.8,017.8,000.0,027.3,020.0,18.5,0001.6,0019.33,0013.80,0013.09
2024-01-05 04:19:00,SystemResetWarning,0825.1,4.99,000.00,018.8,017.8,000.0,027.3,020.0,18.5,0001.5,0019.47,0013.77,0013.05
2024-01-05 04:20:00,SystemResetWarning,0825.0,5.00,000.00,018.8,017.8,000.0,027.2,020.0,18.5,0001.3,0019.44,0013.70,0013.02
2024-01-05 04:21:00,SystemResetWarning,0825.0,5.00,000.00,018.8,017.8,000.0,027.2,020.0,18.6,0001.3,0019.72,0013.66,0013.03
2024-01-05 04:22:00,SystemResetWarning,0825.0,5.00,000.00,018.8,017.9,000.0,027.2,020.0,18.6,0001.3,0020.01,0013.69,0013.04
2024-01-05 04:23:00,SystemResetWarning,0825.0,5.00,000.00,018.8,017.9,000.0,027.2,020.0,18.6,0001.4,0021.14,0013.70,0013.03
2024-01-05 04:24:00,SystemResetWarning,0825.0,5.00,000.00,018.8,017.9,000.0,027.2,020.0,18.7,0001.5,0021.30,0013.73,0013.05
2024-01-05 04:25:00,SystemResetWarning,0825.0,5.00,000.00,018.8,017.9,000.0,027.2,020.0,18.7,0001.6,0021.46,0013.75,0013.05
2024-01-05 04:26:00,SystemResetWarning,0824.9,5.00,000.00,018.8,017.9,000.0,027.2,020.0,18.7,0001.7,0021.76,0013.71,0013.05
2024-01-05 04:27:00,SystemResetWarning,0824.9,5.00,000.00,018.7,017.9,000.0,027.2,020.0,18.7,0001.8,0021.66,0013.69,0013.04
2024-01-05 04:28:00,SystemResetWarning,0824.9,5.00,000.00,018.8,017.9,000.0,027.2,020.0,18.8,0001.8,0021.83,0013.67,0013.04
2024-01-05 04:29:00,SystemResetWarning,0824.9,5.00,000.00,018.7,017.9,000.0,027.2,020.0,18.8,0001.9,0021.72,0013.67,0013.05
2024-01-05 04:30:00,SystemResetWarning,0824.9,4.99,000.00,018.8,017.8,000.0,027.2,020.0,18.8,0001.9,0021.72,0013.71,0013.07
2024-01-05 04:31:00,SystemResetWarning,0824.9,5.00,000.00,018.8,017.8,000.0,027.2,020.0,18.9,0002.1,0021.88,0013.79,0013.10
2024-01-05 04:32:00,SystemResetWarning,0824.9,4.99,000.00,018.8,017.8,000.0,027.2,020.0,18.9,0002.2,0021.72,0013.81,0013.10
2024-01-05 04:33:00,SystemResetWarning,0825.0,5.00,000.00,018.8,017.8,000.0,027.2,020.0,18.9,0002.3,0021.29,0013.79,0013.10
2024-01-05 04:34:00,SystemResetWarning,0825.0,5.00,000.00,018.8,017.8,000.0,027.2,020.0,18.9,0002.4,0020.34,0013.85,0013.12
2024-01-05 04:35:00,SystemResetWarning,0824.9,5.00,000.00,018.8,017.7,000.0,027.2,020.0,18.9,0002.3,0020.39,0013.88,0013.10
2024-01-05 04:36:00,SystemResetWarning,0824.9,5.00,000.00,018.8,017.7,000.0,027.2,020.0,19.0,0002.2,0020.65,0013.84,0013.05
2024-01-05 04:37:00,SystemResetWarning,0824.9,5.01,000.00,018.8,017.7,000.0,027.2,020.0,19.0,0002.2,0021.77,0013.87,0013.03
2024-01-05 04:38:00,SystemResetWarning,0824.9,5.00,000.00,018.8,017.7,000.0,027.2,020.0,19.1,0002.1,0022.24,0013.84,0012.98
2024-01-05 04:39:00,SystemResetWarning,0824.9,5.01,000.00,018.8,017.7,000.0,027.2,020.0,19.1,0002.1,0022.30,0013.83,0012.94
2024-01-05 04:40:00,SystemResetWarning,0824.9,4.99,000.00,018.8,017.7,000.0,027.2,020.0,19.2,0002.1,0022.81,0013.80,0012.92
2024-01-05 04:41:00,SystemResetWarning,0824.9,5.00,000.00,018.7,017.7,000.0,027.2,020.0,19.2,0002.0,0023.00,0013.80,0012.88
2024-01-05 04:42:00,SystemResetWarning,0824.9,5.00,000.00,018.7,017.7,000.0,027.2,020.0,19.3,0002.0,0022.84,0013.79,0012.85
2024-01-05 04:43:00,SystemResetWarning,0824.9,5.00,000.00,018.7,017.7,000.0,027.2,020.0,19.4,0001.9,0022.55,0013.75,0012.85
2024-01-05 04:44:00,SystemResetWarning,0824.9,5.00,000.00,018.7,017.7,000.0,027.2,020.0,19.5,0001.8,0022.47,0013.74,0012.84
2024-01-05 04:45:00,SystemResetWarning,0824.9,5.01,000.00,018.7,017.7,000.0,027.2,020.0,19.6,0001.9,0022.91,0013.68,0012.80
2024-01-05 04:46:00,SystemResetWarning,0824.9,5.00,000.00,018.7,017.7,000.0,027.2,020.0,19.7,0001.9,0023.79,0013.64,0012.78
2024-01-05 04:47:00,SystemResetWarning,0824.9,5.01,000.00,018.7,017.7,000.0,027.2,020.0,19.8,0001.8,0024.10,0013.66,0012.81
2024-01-05 04:48:00,SystemResetWarning,0824.9,5.00,000.00,018.7,017.7,000.0,027.2,020.0,19.8,0001.7,0023.09,0013.67,0012.81
2024-01-05 04:49:00,SystemResetWarning,0824.9,5.01,000.00,018.7,017.7,000.0,027.2,020.0,19.9,0001.7,0022.81,0013.64,0012.80
2024-01-05 04:50:00,SystemResetWarning,0824.9,5.00,000.00,018.7,017.7,000.0,027.2,020.0,20.0,0001.8,0022.32,0013.65,0012.79
2024-01-05 04:51:00,SystemResetWarning,0824.9,4.99,000.00,018.7,017.7,000.0,027.2,020.0,20.0,0001.8,0021.94,0013.64,0012.76
2024-01-05 04:52:00,SystemResetWarning,0824.9,4.99,000.00,018.7,017.7,000.0,027.2,020.0,20.0,0001.9,0021.95,0013.64,0012.76
2024-01-05 04:53:00,SystemResetWarning,0824.9,5.00,000.00,018.7,017.7,000.0,027.2,020.0,20.0,0001.9,0021.72,0013.59,0012.74
2024-01-05 04:54:00,SystemResetWarning,0824.9,5.00,000.00,018.7,017.7,000.0,027.2,020.0,20.1,0001.9,0021.69,0013.55,0012.67
2024-01-05 04:55:00,SystemResetWarning,0824.9,5.00,000.00,018.7,017.7,000.0,027.2,020.0,20.2,0001.9,0021.53,0013.43,0012.56
2024-01-05 04:56:00,SystemResetWarning,0824.9,5.01,000.00,018.7,017.7,000.0,027.2,020.0,20.3,0001.6,0020.82,0013.26,0012.42
2024-01-05 04:57:00,SystemResetWarning,0824.9,5.01,000.00,018.7,017.7,000.0,027.2,020.0,20.4,0001.8,0019.36,0013.10,0012.25
2024-01-05 04:58:00,SystemResetWarning,0824.9,5.00,000.00,018.7,017.7,000.0,027.2,020.0,20.5,0002.0,0019.08,0012.88,0012.03
2024-01-05 04:59:00,SystemResetWarning,0824.9,4.99,000.00,018.7,017.7,000.0,027.2,020.0,20.5,0002.3,0018.66,0012.63,0011.78
